Flag for Australia Weather past 2 weeks in Perth, Western Australia, Australia

Now
59 °F

Partly sunny.


Feels Like: 56 °F
Forecast: 49 / 69 °F
Wind: 15 mph from East

Location: Belmont Perth Airport

Current Time: Sep 2, 2015 at 1:16:31 PM

Latest Report: Sep 2, 2015 at 12:00 PM


Visibility: N/A

Pressure: 30.30 "Hg

Humidity: 42%

Dew point: 36 °F

Location of PerthLocation

Historic Weather in Perth — Graph

°F

Perth temperature yesterday

Maximum temperature yesterday: 61 °F (at 2:30 PM)
Minimum temperature yesterday: 41 °F (at 7:00 AM)
Average temperature yesterday: 51 °F

Past Weeks' High & Low Weather Summary

 TemperatureHumidityPressure
High77 °F (Aug 27, 1:30 PM)100% (Aug 19, 7:00 AM)30.45 "Hg (Aug 19, 7:00 AM)
Low36 °F (Sep 2, 6:30 AM)22% (Aug 27, 1:30 PM)29.77 "Hg (Aug 19, 3:00 PM)
Average57 °F71%30.08 "Hg
* Reported Aug 18 12:00 Noon — Sep 2 12:00 Noon, Perth, Weather by CustomWeather, © 2015

Note: Actual official high and low records may vary slightly from our data, if they occured in-between our weather recording intervals... More about our weather records

Advertising

Perth weather history for previous 24 hours

 ConditionsComfort  
Time TempWeatherWind HumidityBarometerVisibility
12:00 PM
Wed, Sep 2
59 °FPartly sunny.15 mph42%30.30 "HgN/A
11:00 AM57 °FScattered clouds.10 mph44%30.30 "HgN/A
10:30 AM57 °FPassing clouds.14 mph48%30.33 "HgN/A
10:00 AM55 °FScattered clouds.13 mph51%30.33 "HgN/A
9:30 AM54 °FPassing clouds.3 mph58%30.36 "HgN/A
9:00 AM52 °FPassing clouds.1 mph62%30.36 "HgN/A
8:30 AM46 °FSunny.2 mph71%30.36 "HgN/A
8:00 AM45 °FPassing clouds.3 mph76%30.36 "HgN/A
7:30 AM39 °FPassing clouds.5 mph93%30.36 "HgN/A
7:00 AM36 °FPassing clouds.No wind100%30.33 "HgN/A
6:30 AM36 °FSunny.3 mph93%30.33 "Hg10 mi
5:30 AM37 °FClear.3 mph93%30.33 "Hg10 mi
5:00 AM37 °FClear.5 mph93%30.30 "Hg10 mi
4:30 AM39 °FClear.1 mph93%30.30 "Hg10 mi
4:00 AM41 °FClear.6 mph87%30.30 "Hg10 mi
3:30 AM43 °FClear.7 mph76%30.30 "Hg10 mi
3:00 AM41 °FClear.5 mph87%30.30 "Hg10 mi
2:00 AM43 °FClear.7 mph81%30.30 "Hg10 mi
1:30 AM45 °FClear.5 mph71%30.30 "Hg10 mi
1:00 AM43 °FClear.1 mph81%30.30 "Hg10 mi
12:30 AM45 °FClear.6 mph76%30.27 "Hg10 mi
12:00 AM46 °FClear.5 mph71%30.30 "Hg10 mi
11:00 PM
Tue, Sep 1
46 °FClear.6 mph76%30.30 "Hg10 mi
10:30 PM48 °FClear.8 mph71%30.30 "Hg10 mi
10:00 PM46 °FClear.8 mph82%30.30 "Hg10 mi
9:30 PM45 °FClear.8 mph87%30.27 "Hg10 mi
9:00 PM46 °FClear.8 mph82%30.27 "Hg10 mi
8:30 PM46 °FClear.6 mph87%30.27 "Hg10 mi
8:00 PM50 °FPassing clouds.8 mph76%30.27 "HgN/A
7:30 PM52 °FPassing clouds.7 mph67%30.24 "HgN/A
7:00 PM52 °FPassing clouds.8 mph67%30.24 "HgN/A
6:00 PM55 °FPassing clouds.14 mph55%30.21 "HgN/A
5:30 PM55 °FPassing clouds.14 mph51%30.21 "HgN/A
5:00 PM57 °FPassing clouds.15 mph48%30.21 "HgN/A
4:30 PM59 °FPassing clouds.15 mph45%30.21 "HgN/A
4:00 PM59 °FPassing clouds.14 mph45%30.21 "HgN/A
3:30 PM59 °FScattered clouds.12 mph45%30.21 "HgN/A
3:00 PM59 °FScattered clouds.17 mph39%30.21 "HgN/A
2:30 PM61 °FSunny.20 mph36%30.18 "Hg10 mi
2:00 PM59 °FSunny.15 mph39%30.18 "Hg10 mi
1:30 PM59 °FScattered clouds.17 mph39%30.18 "HgN/A
1:00 PM59 °FScattered clouds.20 mph39%30.21 "HgN/A
Weather by CustomWeather, © 2015

See weather overviewHow to use our weather pages